Location: *
(45.5667°S, 177.5167°W)
Time: 22:51:54
(UTC+00:00)

Cosmos 2237 - Pass Details

Date: 29 May 2022
Orbit: 845 x 857 km, 70.8° (Epoch: 24 June)

Event Time Altitude Azimuth Distance (km) Brightness Sun altitude
Rises 06:30:12 0° 204° (SSW) 3,445 7.6 -22.6°
Reaches altitude 10° 06:32:46 10° 198° (SSW) 2,503 6.8 -23.0°
Enters shadow 06:37:59 50° 136° (SE) 1,078 4.4 -23.9°
